| time (UTC) | temp C | wind direction | speed KPH | gust KPH | rain 1hr cm | rain 24hr cm | rain mn cm | humidity % | barometer mb |
| 20260504185613 | 5 | 141 | 6.4 | 14.5 | 0.00 | 0.00 | 0.00 | 79 | 904.1 |
| 20260504184613 | 5 | 131 | 6.4 | 12.9 | 0.00 | 0.00 | 0.00 | 80 | 904.0 |
| 20260504183612 | 5 | 155 | 6.4 | 8.0 | 0.00 | 0.00 | 0.00 | 80 | 903.8 |
| 20260504182612 | 5 | 110 | 9.7 | 22.5 | 0.00 | 0.00 | 0.00 | 78 | 903.6 |
| 20260504181611 | 6 | 124 | 11.3 | 20.9 | 0.00 | 0.00 | 0.00 | 78 | 903.6 |
| 20260504180611 | 6 | 108 | 11.3 | 22.5 | 0.00 | 0.00 | 0.00 | 81 | 903.2 |
| 20260504175610 | 6 | 114 | 9.7 | 29.0 | 0.00 | 0.00 | 0.00 | 82 | 903.1 |
| 20260504174610 | 7 | 127 | 8.0 | 14.5 | 0.00 | 0.00 | 0.00 | 81 | 903.0 |
| 20260504173610 | 7 | 149 | 8.0 | 12.9 | 0.00 | 0.00 | 0.00 | 81 | 902.9 |
| 20260504172610 | 7 | 138 | 8.0 | 12.9 | 0.00 | 0.00 | 0.00 | 82 | 902.7 |
| 20260504171608 | 7 | 162 | 8.0 | 11.3 | 0.00 | 0.00 | 0.00 | 81 | 902.5 |
| 20260504170608 | 7 | 173 | 6.4 | 11.3 | 0.00 | 0.00 | 0.00 | 80 | 902.6 |
| 20260504150602 | 8 | 101 | 4.8 | 16.1 | 0.00 | 0.00 | 0.00 | 56 | 901.4 |
| 20260504140600 | 9 | 349 | 4.8 | 8.0 | 0.00 | 0.00 | 2.01 | 37 | 900.5 |
| 20260504130556 | 9 | 271 | 19.3 | 32.2 | 0.00 | 0.00 | 2.01 | 32 | 898.8 |
| 20260504110550 | 9 | 269 | 25.7 | 62.8 | 0.00 | 0.00 | 2.01 | 45 | 895.9 |
| 20260504100548 | 10 | 262 | 41.8 | 75.6 | 0.00 | 0.00 | 2.01 | 46 | 893.3 |
| 20260504081542 | 11 | 235 | 38.6 | 80.5 | 0.00 | 0.00 | 2.01 | 58 | 893.1 |
| 20260504080543 | 11 | 250 | 40.2 | 85.3 | 0.00 | 0.00 | 2.01 | 58 | 892.9 |
| 20260504050533 | 14 | 217 | 35.4 | 77.2 | 0.00 | 0.00 | 2.01 | 67 | 892.4 |
| 20260504045532 | 14 | 273 | 40.2 | 93.3 | 0.00 | 0.00 | 2.01 | 63 | 892.4 |
| 20260504044532 | 14 | 229 | 45.1 | 104.6 | 0.00 | 0.00 | 2.01 | 63 | 892.5 |
| 20260504043532 | 14 | 263 | 48.3 | 101.4 | 0.00 | 0.00 | 2.01 | 67 | 891.8 |
| 20260504042531 | 14 | 219 | 46.7 | 90.1 | 0.00 | 0.00 | 2.01 | 65 | 892.4 |
| 20260504041530 | 14 | 239 | 45.1 | 101.4 | 0.00 | 0.00 | 2.01 | 68 | 892.6 |
| 20260504040530 | 14 | 252 | 48.3 | 91.7 | 0.00 | 0.00 | 2.01 | 67 | 892.4 |
| 20260504035530 | 14 | 240 | 43.5 | 96.6 | 0.00 | 0.00 | 2.01 | 64 | 892.2 |
| 20260504034529 | 14 | 232 | 43.5 | 91.7 | 0.00 | 0.00 | 2.01 | 68 | 892.7 |
| 20260504033529 | 15 | 228 | 40.2 | 77.2 | 0.00 | 0.00 | 2.01 | 70 | 893.1 |
| 20260504032529 | 14 | 228 | 40.2 | 82.1 | 0.00 | 0.00 | 2.01 | 69 | 892.9 |
| 20260504031528 | 15 | 212 | 38.6 | 75.6 | 0.00 | 0.00 | 2.01 | 68 | 893.1 |
| 20260504030527 | 15 | 253 | 40.2 | 91.7 | 0.00 | 0.00 | 2.01 | 70 | 892.7 |
| 20260504025527 | 15 | 280 | 43.5 | 82.1 | 0.00 | 0.00 | 2.01 | 67 | 892.6 |
| 20260504024526 | 14 | 250 | 49.9 | 93.3 | 0.00 | 0.00 | 2.01 | 66 | 892.6 |
| 20260504023526 | 14 | 225 | 48.3 | 104.6 | 0.00 | 0.00 | 2.01 | 66 | 892.9 |
| 20260504022526 | 14 | 260 | 51.5 | 98.2 | 0.00 | 0.00 | 2.01 | 64 | 892.7 |
| 20260504021525 | 14 | 262 | 51.5 | 96.6 | 0.00 | 0.00 | 2.01 | 67 | 892.7 |
| 20260504020525 | 14 | 225 | 46.7 | 86.9 | 0.00 | 0.00 | 2.01 | 67 | 892.6 |
| 20260504015524 | 14 | 245 | 49.9 | 86.9 | 0.00 | 0.00 | 2.01 | 69 | 892.6 |
| 20260504014524 | 15 | 249 | 53.1 | 104.6 | 0.00 | 0.00 | 2.01 | 68 | 892.7 |
| 20260504013524 | 15 | 253 | 51.5 | 101.4 | 0.00 | 0.00 | 2.01 | 69 | 892.4 |
| 20260504012523 | 15 | 236 | 56.3 | 106.2 | 0.00 | 0.00 | 2.01 | 73 | 892.6 |
| 20260504011523 | 14 | 232 | 56.3 | 114.3 | 0.00 | 0.00 | 2.01 | 72 | 892.3 |
| 20260504010522 | 15 | 248 | 51.5 | 95.0 | 0.00 | 0.00 | 2.01 | 69 | 892.6 |
| 20260504005521 | 15 | 249 | 51.5 | 99.8 | 0.00 | 0.00 | 2.01 | 69 | 892.6 |
| 20260504004521 | 15 | 269 | 54.7 | 91.7 | 0.00 | 0.00 | 2.01 | 73 | 892.6 |
| 20260504003520 | 15 | 256 | 53.1 | 96.6 | 0.00 | 0.00 | 2.01 | 68 | 892.6 |
| 20260504002520 | 15 | 238 | 54.7 | 123.9 | 0.00 | 0.00 | 2.01 | 62 | 892.7 |
| 20260504001519 | 15 | 245 | 56.3 | 117.5 | 0.00 | 0.00 | 2.01 | 50 | 892.1 |
| 20260504000520 | 14 | 210 | 57.9 | 123.9 | 0.00 | 0.00 | 2.01 | 58 | 892.1 |
| 20260503235519 | 14 | 242 | 53.1 | 103.0 | 0.00 | 0.00 | 2.01 | 55 | 892.2 |
| 20260503234518 | 14 | 256 | 54.7 | 122.3 | 0.00 | 0.00 | 2.01 | 57 | 892.5 |
| 20260503233518 | 14 | 238 | 56.3 | 109.4 | 0.00 | 0.00 | 2.01 | 53 | 892.1 |
| 20260503232518 | 14 | 256 | 59.5 | 109.4 | 0.00 | 0.00 | 2.01 | 59 | 892.0 |
| 20260503231517 | 14 | 215 | 56.3 | 106.2 | 0.00 | 0.00 | 2.01 | 61 | 892.7 |
| 20260503230516 | 14 | 243 | 57.9 | 101.4 | 0.00 | 0.00 | 2.01 | 57 | 892.5 |
| 20260503225516 | 14 | 235 | 57.9 | 112.7 | 0.00 | 0.00 | 2.01 | 56 | 892.8 |
| 20260503224515 | 15 | 246 | 59.5 | 107.8 | 0.00 | 0.00 | 2.01 | 50 | 893.1 |
| 20260503223515 | 15 | 269 | 57.9 | 133.6 | 0.00 | 0.00 | 2.01 | 50 | 893.1 |
| 20260503222514 | 15 | 224 | 59.5 | 125.5 | 0.00 | 0.00 | 1.98 | 41 | 892.8 |
| 20260503221515 | 15 | 253 | 57.9 | 107.8 | 0.00 | 0.00 | 1.98 | 38 | 892.8 |
| 20260503220513 | 15 | 243 | 53.1 | 112.7 | 0.00 | 0.00 | 1.98 | 43 | 892.8 |
| 20260503215513 | 15 | 259 | 54.7 | 130.4 | 0.00 | 0.00 | 1.98 | 53 | 892.6 |
| 20260503214513 | 15 | 240 | 48.3 | 95.0 | 0.00 | 0.00 | 1.96 | 61 | 893.3 |
| 20260503213513 | 16 | 270 | 46.7 | 91.7 | 0.00 | 0.00 | 1.93 | 68 | 893.1 |
| 20260503212512 | 16 | 217 | 43.5 | 107.8 | 0.00 | 0.00 | 1.93 | 65 | 893.2 |
| 20260503211511 | 16 | 253 | 40.2 | 104.6 | 0.00 | 0.00 | 1.88 | 62 | 892.9 |
| 20260503210511 | 16 | 276 | 41.8 | 95.0 | 0.00 | 0.00 | 1.83 | 70 | 893.1 |
| 20260503205510 | 16 | 224 | 43.5 | 85.3 | 0.00 | 0.00 | 1.75 | 66 | 893.2 |
| 20260503204511 | 16 | 221 | 41.8 | 99.8 | 0.00 | 0.00 | 1.73 | 65 | 894.0 |
| 20260503203510 | 16 | 239 | 40.2 | 104.6 | 0.00 | 0.00 | 1.63 | 69 | 893.3 |
| 20260503202509 | 16 | 228 | 49.9 | 122.3 | 0.00 | 0.00 | 1.57 | 62 | 892.9 |
| 20260503201509 | 16 | 232 | 40.2 | 106.2 | 0.00 | 0.00 | 1.55 | 67 | 893.4 |
| 20260503200509 | 16 | 225 | 46.7 | 98.2 | 0.00 | 0.00 | 1.47 | 71 | 893.8 |
| 20260503195508 | 16 | 222 | 41.8 | 90.1 | 0.00 | 0.00 | 1.40 | 61 | 893.7 |
| 20260503194507 | 16 | 232 | 43.5 | 109.4 | 0.00 | 0.00 | 1.27 | 65 | 893.7 |
| 20260503193507 | 16 | 259 | 45.1 | 111.0 | 0.00 | 0.00 | 1.19 | 65 | 893.2 |
| 20260503192506 | 16 | 248 | 53.1 | 127.1 | 0.00 | 0.00 | 1.14 | 62 | 892.7 |
| 20260503191506 | 16 | 212 | 49.9 | 107.8 | 0.00 | 0.00 | 1.09 | 55 | 892.7 |
| 20260503190505 | 16 | 246 | 51.5 | 99.8 | 0.00 | 0.00 | 1.07 | 64 | 893.8 |